sat.trackr.live / text

‹ back to catalog

XM-5

NORAD 37185 · 2010-053A

PAYLOAD ACTIVE UNKNOWN

§ Identity

Operator
Country
US
Launch date
2010-10-14
Launch site
TYMSC
Launch vehicle
Mass (kg)
RCS (m²)
12.62

Purposes: comms

External: N2YO · Heavens-Above · Gunter

§ Orbital elements

Epoch: 2026-09-19T16:25:24.470400Z

Period
1,436.09 min
Inclination
0.0711°
Eccentricity
0.0000512
Mean motion
1.00271959 rev/d
Perigee alt
35,784.4 km
Apogee alt
35,788.7 km
Semi-major
42,164.7 km
B*
0.0000e+0
RAAN
270.9145°
Arg perigee
213.5414°
Mean anomaly
5.3096°
Rev number
5,843

§ Raw data

XM-51 37185U 10053A   26262.68431100 -.00000028  00000+0  00000+0 0  99932 37185   0.0711 270.9145 0000512 213.5414   5.3096  1.00271959 58438

JSON: /api/v1/satellites/37185 · /tle

For live sub-satellite position, see the globe view (requires WebGL).

§ Visibility from observer

Set your observer location to see the next 7 days of passes ≥ 10°. The values pass through the URL so the page stays shareable.

No JS? Fill the form by hand. The geolocation button needs JavaScript.